Rochester, NY

6:11 PM EDT on August 23, 2017 (GMT -0400)
Greater Rochester International

Weather History for KROC - May, 2013

Change the Weather History Date:

Monday, May 20, 2013

  Actual Average Record
Temperature  
Mean Temperature 73 °F 58 °F  
Max Temperature 83 °F 69 °F 92 °F (1911)
Min Temperature 63 °F 48 °F 34 °F (1956)
Degree Days  
Heating Degree Days 0 8  
Month to date heating degree days 108 207  
Since 1 July heating degree days 5932 6510  
Cooling Degree Days 8 1  
Month to date cooling degree days 18 11  
Year to date cooling degree days 19 15  
Growing Degree Days 23 (Base 50)    
Moisture  
Dew Point 62 °F    
Average Humidity 70    
Maximum Humidity 84    
Minimum Humidity 55    
Precipitation  
Precipitation 0.00 in 0.10 in 1.31 in (1890)
Month to date precipitation 1.58 1.82  
Year to date precipitation 9.45 11.41  
Snow  
Snow 0.00 in 0.00 in T in (1907)
Month to date snowfall T 0.4  
Since 1 July snowfall 78.1 99.5  
Snow Depth 0.00 in    
Sea Level Pressure  
Sea Level Pressure 29.97 in    
Wind  
Wind Speed 8 mph (South)    
Max Wind Speed 22 mph    
Max Gust Speed 33 mph    
Visibility 10 miles    
Events      
T = Trace of Precipitation, MM = Missing Value Source: NWS Daily Summary

Daily Weather History Graph

Daily Weather History Graph

Search for Another Location

Airport or City:

Trip Planner

Search our weather history database for the weather conditions in past years. The results will help you decide how hot, cold, wet, or windy it might be!

Date:

Astronomy

May. 20, 2013 Rise Set
Actual Time 5:42 AM EDT 8:32 PM EDT
Civil Twilight 5:08 AM EDT 9:06 PM EDT
Nautical Twilight 4:26 AM EDT 9:48 PM EDT
Astronomical Twilight 3:37 AM EDT 10:38 PM EDT
Moon 3:31 PM EDT (5/20) 2:44 AM EDT (5/20)
Length of Visible Light 15h 57m
Length of Day
14h 50m
Waxing Gibbous, 75% of the Moon is Illuminated
May 20
Waxing Gibbous
May 25
Full
May 31
Last Quarter
Jun 8
New
Jun 16
First Quarter

Hourly Weather History & Observations

Time (EDT) Temp. Heat Index Dew Point Humidity Pressure Visibility Wind Dir Wind Speed Gust Speed Precip Events Conditions
12:54 AM 64.9 °F - 57.0 °F 75% 30.03 in 10.0 mi SSW 5.8 mph - N/A   Mostly Cloudy
1:54 AM 64.9 °F - 57.9 °F 78% 30.02 in 10.0 mi SW 10.4 mph - N/A   Mostly Cloudy
2:54 AM 64.9 °F - 57.9 °F 78% 30.01 in 10.0 mi SSW 9.2 mph - N/A   Scattered Clouds
3:54 AM 64.4 °F - 57.2 °F 77% 30.00 in 10.0 mi SW 8.1 mph - N/A   Scattered Clouds
4:54 AM 64.9 °F - 57.9 °F 78% 29.99 in 10.0 mi SW 11.5 mph - N/A   Partly Cloudy
5:54 AM 64.0 °F - 57.9 °F 80% 30.01 in 10.0 mi SSW 9.2 mph - N/A   Mostly Cloudy
6:54 AM 64.9 °F - 59.0 °F 81% 30.04 in 10.0 mi SW 9.2 mph - N/A   Mostly Cloudy
7:54 AM 68.0 °F - 60.1 °F 76% 30.05 in 10.0 mi SW 10.4 mph - N/A   Mostly Cloudy
8:54 AM 71.1 °F - 61.0 °F 70% 30.04 in 10.0 mi SW 6.9 mph - N/A   Mostly Cloudy
9:54 AM 73.4 °F - 62.6 °F 69% 30.03 in 10.0 mi SW 6.9 mph - N/A   Mostly Cloudy
10:54 AM 77.0 °F - 64.0 °F 64% 30.00 in 10.0 mi Calm Calm - N/A   Scattered Clouds
11:54 AM 80.1 °F 81.7 °F 64.0 °F 58% 30.00 in 10.0 mi Calm Calm - N/A   Mostly Cloudy
12:54 PM 82.0 °F 83.4 °F 64.0 °F 54% 29.98 in 10.0 mi Calm Calm - N/A   Mostly Cloudy
1:54 PM 79.0 °F - 64.0 °F 60% 29.98 in 10.0 mi NNE 10.4 mph - N/A   Scattered Clouds
2:54 PM 82.9 °F 84.6 °F 64.9 °F 54% 29.95 in 10.0 mi ENE 10.4 mph - N/A   Scattered Clouds
3:54 PM 81.0 °F 82.5 °F 64.0 °F 56% 29.95 in 10.0 mi NNE 16.1 mph - N/A   Scattered Clouds
4:54 PM 80.1 °F 81.7 °F 64.0 °F 58% 29.92 in 10.0 mi NE 9.2 mph - N/A   Scattered Clouds
5:54 PM 81.0 °F 82.7 °F 64.9 °F 58% 29.89 in 10.0 mi East 9.2 mph - N/A   Scattered Clouds
6:54 PM 81.0 °F 83.0 °F 66.0 °F 60% 29.88 in 10.0 mi ENE 6.9 mph - N/A   Partly Cloudy
7:54 PM 80.1 °F 81.9 °F 64.9 °F 60% 29.87 in 10.0 mi ENE 6.9 mph - N/A   Scattered Clouds
8:54 PM 73.0 °F - 62.1 °F 68% 29.88 in 10.0 mi NNE 5.8 mph - N/A   Scattered Clouds
9:54 PM 73.4 °F - 64.4 °F 73% 29.89 in 10.0 mi NE 3.5 mph - N/A   Scattered Clouds
10:54 PM 71.1 °F - 63.0 °F 75% 29.89 in 10.0 mi Calm Calm - N/A   Mostly Cloudy
11:54 PM 68.0 °F - 62.1 °F 81% 29.89 in 10.0 mi SW 4.6 mph - N/A   Mostly Cloudy